Wind_Speed
17 17 17 16 16 16 15 14 13 12 12 13 13 14 14 15 15 15 15 15 15 15 13 13 12 11 11 11 11 11 12 11 12 13 7 2 5 3 3 3 5 6 8 10 12 13 10 9 9 10 8 8 8 7 11 11 9 8 8 10 11 12 12 12 13 12 12 12 13 15 17 16 14 10 7 9 12 13 13 12 13 10 11 12 17 28 29 28
17 17 17 17 16 16 15 13 12 12 12 13 13 13 14 15 15 15 16 16 16 15 14 12 11 11 11 11 11 12 13 14 17 12 3 6 2 1 3 4 6 6 9 12 14 12 8 7 7 8 7 6 8 9 10 10 10 9 8 10 12 12 13 13 15 15 15 14 15 15 15 16 15 11 7 10 13 13 14 13 13 10 13 15 22 27 26 27
18 17 17 17 17 16 14 13 12 11 12 13 13 14 14 14 15 15 16 16 16 15 14 12 11 11 11 10 11 12 13 16 15 4 8 5 2 1 4 5 6 7 9 13 15 11 7 9 6 4 7 7 7 10 11 9 10 10 9 10 11 13 14 15 16 19 17 14 17 17 16 16 15 11 8 12 13 14 15 12 12 10 16 19 21 22 23 25
18 18 18 17 17 16 14 13 12 11 12 13 14 14 14 14 14 15 16 16 16 15 14 13 12 11 11 10 10 10 11 13 5 7 8 3 2 2 4 5 6 6 9 14 14 9 7 9 7 6 7 7 8 10 11 10 9 8 10 12 13 13 14 15 18 21 18 16 17 18 18 17 15 13 12 13 13 12 13 13 13 11 19 22 21 21 21 22
18 18 18 18 17 16 14 12 11 12 12 13 14 14 14 14 14 15 16 16 15 14 13 13 12 11 11 10 10 9 9 7 4 9 6 2 1 1 4 5 6 6 10 14 11 8 8 8 8 8 7 7 9 9 9 11 10 8 11 14 15 15 15 15 18 18 16 17 18 18 18 16 15 16 13 14 14 10 10 11 12 12 18 23 21 21 20 20
18 19 18 18 17 16 14 12 11 12 12 14 15 15 14 14 15 16 16 16 15 13 13 13 12 12 11 10 9 6 8 2 7 7 6 2 1 2 4 5 5 6 10 13 10 7 7 8 8 7 7 7 10 10 9 11 12 10 11 14 16 16 16 15 17 17 16 15 15 15 15 15 16 17 13 13 16 13 12 10 10 14 14 23 22 20 21 20
19 19 19 19 18 17 14 11 11 11 12 14 14 15 15 15 16 16 16 15 13 12 12 13 13 13 12 10 7 6 9 2 8 6 4 5 3 1 4 4 5 7 10 11 9 7 7 7 8 6 7 8 9 10 10 11 12 11 10 13 15 16 15 14 15 17 19 16 14 13 14 17 19 16 14 16 17 16 15 13 11 14 10 22 22 20 22 21
20 20 20 19 18 17 14 11 11 11 12 13 14 15 16 17 18 17 15 13 11 10 10 12 13 12 12 10 7 8 7 2 9 6 2 3 4 3 4 5 7 9 10 10 8 8 7 6 8 6 7 8 5 6 8 7 8 9 12 13 12 12 13 14 14 16 17 15 13 13 16 17 16 14 15 21 19 15 18 17 14 13 10 20 21 20 20 19
21 21 21 20 19 18 14 11 11 11 12 13 14 16 18 20 18 15 12 10 9 9 10 12 12 12 12 7 7 7 1 6 8 7 5 3 5 5 6 8 10 10 9 8 5 7 6 5 7 5 7 9 8 8 7 5 5 8 11 12 12 12 13 13 14 15 14 12 12 14 16 15 15 15 16 21 20 18 19 18 13 15 11 16 19 18 16 14
21 21 21 20 19 18 15 11 11 11 12 13 14 17 21 19 15 11 9 7 7 8 10 12 12 11 9 6 8 4 3 3 3 7 5 2 5 7 8 9 9 9 9 7 4 7 8 7 8 7 8 9 9 8 8 7 7 8 8 9 12 13 12 11 12 13 12 12 12 13 15 14 15 14 13 17 16 18 16 11 12 17 17 12 19 15 11 9
22 21 22 21 19 18 15 11 11 12 13 13 15 19 21 16 10 7 6 5 6 7 10 13 12 10 8 9 9 3 1 2 1 4 4 3 5 7 8 8 6 8 10 7 6 7 7 9 8 6 5 5 7 8 8 9 10 11 11 10 12 13 12 13 13 13 10 10 12 13 15 16 15 15 18 19 15 15 14 13 16 18 19 9 19 15 11 9
22 22 22 22 20 17 15 12 11 12 13 13 15 20 19 13 8 5 4 4 6 7 10 12 12 9 8 10 6 2 3 3 2 3 4 4 6 8 8 7 6 8 10 10 10 6 4 8 9 8 7 5 7 7 4 6 9 10 11 10 12 13 13 15 15 14 12 10 12 12 14 15 16 21 24 22 18 18 17 16 18 19 19 11 16 15 13 13
23 23 22 22 20 17 15 12 11 11 12 13 16 19 16 10 7 4 3 4 5 7 11 12 11 8 8 8 0 2 4 4 3 3 5 6 8 8 9 7 6 9 9 10 12 8 4 6 9 10 10 9 8 8 7 7 9 10 10 9 10 10 11 14 14 15 15 12 12 12 10 12 18 23 24 21 20 21 21 18 18 19 18 14 12 14 15 14
24 24 23 23 20 17 14 12 11 11 12 13 17 18 14 9 5 3 4 5 5 8 11 11 10 6 7 6 1 0 5 4 6 6 5 6 8 9 11 9 6 8 9 9 11 10 8 8 10 10 9 10 9 10 11 9 8 9 10 9 7 8 8 12 13 15 15 13 15 14 10 11 15 19 20 19 21 23 23 20 19 20 17 16 13 14 17 16
25 25 25 24 21 17 14 12 11 11 12 15 17 17 12 7 4 3 4 5 6 9 11 12 9 5 7 7 4 3 4 6 7 4 4 6 10 11 8 9 8 7 8 9 10 10 10 9 9 9 8 10 11 9 9 8 7 8 8 7 7 7 8 11 12 12 13 11 16 16 10 12 14 16 17 16 20 23 24 21 20 23 20 18 16 13 17 17
26 27 27 25 21 16 14 12 11 11 13 15 17 15 9 5 4 5 6 7 9 11 9 9 10 10 7 3 5 6 7 8 3 4 8 6 7 12 9 6 8 8 8 8 9 9 9 9 8 8 9 10 10 8 7 7 8 7 7 7 7 8 7 8 10 11 13 11 14 16 11 10 12 13 16 17 19 22 23 22 22 23 21 18 15 11 13 14
27 28 27 26 20 16 15 12 11 12 13 16 16 12 7 6 6 6 8 10 9 10 8 10 11 9 7 5 2 7 6 4 3 8 13 5 2 9 12 9 10 11 11 9 9 10 9 8 6 7 8 8 8 7 7 7 7 5 6 7 8 10 9 8 11 11 10 10 12 15 14 12 13 14 16 17 19 20 21 22 23 22 18 16 14 14 14 9
28 28 29 26 20 16 14 12 11 12 14 15 12 10 9 8 9 9 11 9 5 7 9 12 13 6 6 7 5 6 6 7 7 9 11 9 6 6 9 10 10 11 10 9 9 9 8 6 7 7 6 7 7 6 7 7 6 6 6 6 8 11 12 10 10 8 7 11 12 13 14 16 17 15 16 18 19 20 20 20 21 20 18 16 14 13 14 7
28 29 29 27 21 16 14 13 11 12 15 13 10 12 12 9 9 10 12 9 5 6 4 5 8 4 6 5 2 5 9 9 8 9 9 10 7 5 9 11 10 10 9 7 7 7 6 6 6 6 6 7 5 6 8 9 9 10 9 8 9 9 10 11 12 11 11 12 12 14 14 15 17 15 16 17 19 20 19 19 17 17 17 16 13 9 11 12
29 29 28 27 22 16 14 13 11 11 14 14 14 13 9 5 4 4 7 10 11 6 7 3 3 7 10 7 7 9 11 10 9 9 5 5 7 9 9 9 9 8 7 8 6 4 6 7 6 7 9 5 4 9 13 11 11 12 11 10 11 10 9 11 13 13 12 10 13 16 15 14 15 16 17 17 18 20 20 19 18 17 17 13 13 12 11 14
29 28 27 26 23 17 13 13 11 9 12 15 16 11 4 6 5 3 4 9 13 5 6 7 5 9 8 5 9 9 8 9 8 6 1 2 8 9 5 5 9 6 4 10 9 5 7 9 8 9 8 4 6 14 14 12 12 12 11 10 10 9 8 11 13 14 11 9 11 14 15 15 15 16 18 18 18 18 19 19 16 19 18 13 14 15 13 11
29 28 26 26 23 18 14 13 10 8 10 13 13 8 6 11 7 7 7 8 11 5 6 7 6 9 5 2 4 3 6 8 7 6 2 3 8 6 2 3 9 6 1 5 7 7 8 8 10 10 7 6 12 15 12 12 12 10 8 8 8 7 8 10 11 12 11 7 8 12 13 14 15 16 19 19 17 16 18 20 17 18 18 16 14 14 14 12
29 27 26 25 23 19 15 13 9 8 10 12 10 4 8 10 9 9 6 6 10 8 8 6 6 7 4 4 2 1 8 8 5 3 1 5 8 6 6 5 6 6 4 5 5 4 6 5 10 13 8 11 15 13 12 11 8 8 7 6 6 6 7 7 6 7 9 9 9 12 11 11 13 14 18 20 16 16 20 22 20 16 16 18 15 12 13 14
29 27 25 24 22 18 15 13 11 9 10 12 6 7 8 9 10 10 6 6 8 8 6 1 3 4 1 5 4 4 9 6 5 6 1 5 8 5 7 7 5 4 4 9 10 8 8 7 6 10 9 13 14 12 10 7 5 7 9 7 7 9 10 8 6 6 9 10 11 11 10 9 11 13 15 16 15 17 19 18 16 15 16 18 16 14 13 13
29 27 24 23 21 17 15 13 10 8 8 8 3 7 8 9 8 9 5 5 5 5 5 2 3 2 2 4 4 5 10 7 4 8 5 5 8 6 6 5 5 5 3 5 7 9 9 6 3 7 11 12 13 10 7 7 5 5 7 7 8 13 14 11 9 6 6 7 8 10 9 7 9 14 15 12 14 17 16 16 18 17 15 14 13 13 13 13
29 26 23 22 21 18 13 7 7 11 11 5 7 8 8 7 7 8 4 4 3 2 5 5 4 1 2 6 3 4 8 3 0 7 6 4 6 6 6 5 4 4 5 4 6 6 4 3 3 8 12 12 11 7 5 6 5 4 7 7 10 15 14 12 11 7 5 5 6 9 9 7 7 11 15 14 15 17 15 16 19 16 13 13 13 15 13 13
29 27 23 21 20 17 10 5 11 15 8 5 9 8 8 6 6 5 4 4 2 2 2 3 1 1 3 6 5 5 6 4 2 6 4 2 4 5 6 6 4 4 5 4 4 2 2 6 7 9 11 10 8 5 3 4 4 3 7 9 11 13 13 14 11 6 5 5 6 10 10 9 6 7 13 14 16 16 15 17 17 14 13 14 15 14 11 12
28 27 24 21 17 12 9 9 14 13 6 9 9 7 6 5 5 4 4 2 2 1 2 3 4 2 4 6 7 7 6 7 5 1 1 5 5 5 8 7 7 7 6 6 5 1 3 9 8 7 8 5 5 6 4 6 7 5 8 11 12 13 12 13 11 6 4 4 6 8 8 9 6 6 12 13 14 14 17 18 16 16 15 15 15 15 13 13
28 26 24 21 14 7 9 9 11 10 8 9 8 7 7 5 4 3 3 2 2 2 1 2 1 1 4 8 6 4 6 6 5 4 4 6 4 5 7 7 9 10 9 9 7 5 4 7 7 8 6 1 4 7 5 6 6 6 10 15 14 12 9 9 9 7 4 5 7 6 8 8 2 6 8 5 7 8 13 16 13 13 9 5 7 9 7 5
27 25 23 20 11 4 6 7 10 9 7 8 9 9 8 5 3 3 3 2 1 1 1 2 3 2 4 7 3 4 8 5 6 6 4 5 4 7 6 5 7 8 9 8 7 8 10 6 4 7 4 1 5 4 2 5 6 6 8 13 13 8 6 6 7 7 6 6 6 8 11 8 0 5 7 3 4 6 2 8 11 6 7 13 10 9 11 10
27 24 21 17 10 6 7 5 4 7 6 8 10 9 7 4 4 4 2 1 1 1 2 3 7 6 6 7 3 5 8 6 6 7 4 4 4 5 5 3 3 3 6 6 4 7 10 4 3 4 1 3 7 1 2 5 7 5 5 7 8 5 4 5 5 6 6 4 5 9 6 2 3 2 4 8 10 14 12 4 5 8 14 16 14 14 16 15
26 23 17 12 9 8 8 6 6 7 7 8 10 7 4 3 4 3 2 2 3 3 3 2 7 7 7 7 5 6 5 4 7 5 4 4 3 3 4 3 4 4 2 3 3 7 6 3 7 7 2 4 6 2 1 3 4 5 3 5 5 3 3 4 4 4 4 4 7 8 1 8 4 2 7 11 11 13 15 13 13 15 16 14 14 14 13 14
24 20 13 6 5 6 7 8 9 7 7 8 7 5 3 5 3 1 4 2 0 3 2 2 6 7 8 6 4 5 4 3 8 6 4 5 4 4 5 5 6 7 3 0 2 5 3 3 7 6 4 7 8 5 3 2 2 3 0 3 3 3 1 3 3 2 2 4 6 8 4 5 5 1 6 10 8 9 13 13 13 14 15 14 14 14 13 13
21 14 7 3 5 6 6 8 7 6 7 6 5 3 4 5 2 1 4 4 4 3 3 3 5 7 7 6 3 5 4 4 6 6 5 4 2 3 5 5 6 7 5 3 1 3 4 3 4 3 2 7 9 6 6 6 5 1 4 4 2 4 3 3 2 1 1 2 5 7 3 4 6 4 4 9 8 7 10 11 11 12 12 12 13 13 13 13
18 9 4 4 6 7 8 9 6 4 5 4 5 4 4 4 3 4 4 6 5 5 6 4 7 6 4 4 2 4 2 4 6 5 4 3 3 4 4 5 7 8 6 4 2 3 6 2 2 4 5 7 9 8 8 8 5 1 3 3 2 5 6 3 1 2 3 3 4 4 2 5 5 7 7 7 9 11 9 8 10 10 10 11 11 12 11 11
17 7 4 7 9 7 6 7 5 3 4 5 5 4 3 3 5 5 4 5 6 7 8 7 5 5 3 2 2 3 1 3 7 5 3 3 3 5 6 5 6 8 6 5 2 0 4 4 2 6 7 5 8 9 8 8 4 2 3 2 2 8 9 5 1 1 1 1 1 1 6 6 5 7 7 6 8 10 10 8 9 9 9 10 9 9 10 10
17 8 7 9 7 4 5 6 5 4 4 4 4 4 4 3 5 5 5 5 4 3 6 6 2 3 5 3 3 4 4 4 6 4 3 3 2 5 7 5 5 9 7 5 3 1 1 4 3 5 7 4 8 11 10 8 6 4 4 4 6 9 9 5 2 2 2 1 2 4 8 6 4 4 6 8 10 10 10 10 10 8 8 8 9 9 10 10
14 10 10 8 2 1 4 5 4 5 4 4 6 6 5 3 5 5 5 5 5 3 4 4 3 3 4 4 5 6 6 5 5 4 3 3 2 4 7 5 5 9 8 6 3 2 3 4 2 5 8 7 8 8 6 6 7 6 7 6 5 5 4 3 2 2 4 2 2 6 8 3 2 4 7 10 12 12 11 11 10 10 9 8 9 10 10 10
11 7 5 2 1 2 4 2 3 5 4 5 6 3 3 3 6 7 6 4 4 4 3 3 3 3 3 4 6 6 6 5 5 4 2 2 3 3 5 5 5 8 10 8 5 2 2 1 1 4 6 6 7 5 4 5 6 7 8 6 4 4 4 3 3 4 3 3 4 6 6 4 4 5 8 10 11 10 9 9 9 9 9 9 9 9 9 9
8 5 1 3 2 3 2 2 3 5 4 6 6 1 2 4 5 8 7 3 3 4 4 4 4 4 5 6 6 6 6 6 6 3 2 4 3 2 3 7 6 8 10 9 7 5 2 1 2 3 0 2 3 2 4 5 5 6 6 6 6 4 5 5 4 6 3 2 4 4 5 5 4 4 7 10 10 9 9 9 8 8 10 10 10 10 9 8
6 6 1 4 3 3 3 4 4 5 5 6 4 3 5 5 4 4 4 4 1 3 2 3 4 5 5 5 5 6 6 6 4 2 2 4 3 1 5 8 7 6 8 6 5 6 3 2 4 5 2 4 2 2 6 7 6 5 4 4 6 4 4 5 4 4 2 1 2 3 5 5 4 3 6 9 9 9 10 11 9 9 11 11 10 10 10 10
6 4 2 5 4 4 4 5 4 5 3 1 2 4 3 3 4 4 2 5 3 2 1 1 3 4 4 4 4 6 6 6 4 3 4 5 5 5 6 7 7 6 5 5 4 3 3 3 4 5 3 5 3 2 6 9 6 5 5 4 5 4 3 3 3 4 6 5 2 4 6 3 3 4 7 9 9 9 11 12 10 10 11 11 11 10 11 11
4 3 4 6 4 4 5 5 4 5 2 2 2 3 4 2 3 3 3 3 1 3 2 3 2 2 3 4 5 6 6 4 4 4 6 6 6 6 6 6 7 7 5 3 4 2 2 3 3 4 2 4 3 1 5 10 8 5 5 6 5 6 6 4 3 4 5 6 5 2 5 3 3 6 8 9 10 11 11 11 11 10 9 11 12 12 11 10
5 5 1 5 5 4 5 4 3 5 3 3 3 2 4 0 3 4 5 3 1 1 3 4 3 1 1 4 6 5 5 3 3 5 6 6 5 5 5 5 5 7 6 3 4 3 1 3 4 4 2 2 2 1 3 8 8 5 6 7 7 9 9 6 4 2 2 5 9 2 3 3 2 5 9 10 12 12 11 11 12 10 10 11 11 11 11 11
5 5 3 4 6 4 4 3 4 5 5 5 4 3 3 2 1 3 6 6 2 1 4 4 4 4 3 4 5 5 3 2 3 6 6 5 5 3 4 5 5 7 7 3 3 2 2 3 4 4 4 3 3 2 1 4 6 4 6 9 9 11 11 7 4 3 3 4 7 4 3 2 3 7 11 13 13 13 12 13 12 11 12 12 11 10 11 11
3 3 3 1 3 4 4 2 4 4 4 5 4 5 4 1 3 1 3 6 2 1 5 5 3 4 4 4 6 5 4 3 3 5 6 5 5 3 3 5 6 7 3 1 3 3 2 4 4 4 4 4 5 5 3 3 4 5 8 11 11 11 11 8 4 4 4 4 4 6 6 4 6 11 13 13 13 13 13 13 13 12 12 12 11 11 12 12
2 2 4 3 2 3 2 2 3 3 3 4 3 4 4 2 2 3 1 4 3 1 4 5 3 4 4 5 5 4 5 4 2 4 6 6 5 4 4 5 6 4 4 2 5 4 2 4 5 6 7 6 7 7 5 5 6 8 9 10 11 11 11 9 7 6 7 4 3 7 8 6 7 12 13 13 14 13 13 14 13 13 12 12 13 14 15 14
3 3 2 2 3 4 4 4 4 5 5 3 3 4 4 5 4 2 2 3 4 3 2 3 4 4 4 5 5 4 6 6 3 3 6 6 6 6 3 3 4 2 5 2 8 4 2 4 5 6 7 7 6 6 5 6 7 8 9 10 10 10 10 10 9 8 7 4 4 7 9 6 6 10 11 11 13 12 13 13 13 13 13 13 14 15 16 17
5 4 3 3 5 6 6 6 6 6 5 3 2 3 4 6 5 3 2 2 4 4 3 4 4 2 3 5 4 4 5 6 4 5 7 6 6 6 4 2 4 2 2 5 5 2 0 3 3 4 5 5 4 4 4 5 7 9 10 10 10 9 9 8 8 7 7 7 7 8 7 5 5 8 9 9 10 10 10 11 12 13 13 14 15 15 16 17
4 4 3 4 6 6 6 6 5 5 3 2 3 4 4 6 4 2 2 3 5 5 3 5 5 3 3 5 5 4 5 6 6 6 6 6 5 5 4 2 5 6 5 5 3 1 2 1 2 3 3 4 4 5 4 2 5 8 9 10 9 9 8 7 7 7 6 6 8 8 6 5 5 7 8 8 9 9 10 11 12 12 13 15 15 15 16 17
4 4 4 5 5 4 5 5 3 4 3 1 3 3 3 4 3 3 2 6 8 5 2 5 7 5 4 4 4 5 5 6 8 6 6 6 5 4 3 4 5 6 5 4 3 3 3 2 3 2 2 3 5 7 6 3 3 5 7 10 9 8 7 7 6 6 6 5 7 7 6 5 6 8 9 9 10 11 12 13 12 11 12 14 15 16 16 17
4 5 4 4 5 5 5 5 4 4 2 1 4 5 5 4 1 2 4 6 6 2 1 1 4 5 4 4 3 4 6 7 7 7 6 5 4 3 3 3 5 4 4 3 3 2 2 2 3 3 2 2 5 8 7 5 3 3 5 7 7 6 6 6 5 6 6 3 4 5 5 5 6 8 10 10 11 12 12 12 11 11 12 13 14 16 17 17
Wind_Direction
354 352 350 350 347 344 341 339 341 340 336 335 334 334 334 336 336 336 336 333 336 338 339 341 339 339 338 332 326 321 314 307 297 278 244 100 67 52 7 334 304 292 283 285 280 276 261 233 230 226 220 224 223 232 234 230 228 219 223 236 241 243 241 245 251 257 268 266 256 258 262 263 264 248 232 238 240 239 234 229 221 192 147 144 134 133 146 150
353 352 350 348 345 342 340 339 340 340 340 338 337 337 337 337 337 339 340 338 338 339 339 338 338 338 334 328 325 324 323 309 287 276 128 108 114 21 326 298 292 293 282 283 286 279 263 252 232 210 217 234 217 217 227 224 226 226 227 234 238 245 248 254 259 262 266 273 275 268 266 267 262 259 248 242 238 230 234 229 220 179 133 127 126 136 148 151
353 351 349 346 344 341 339 338 337 339 342 340 340 340 338 338 339 339 340 340 339 339 338 336 335 332 329 326 322 329 326 301 280 235 115 115 122 11 312 294 289 289 273 278 294 302 301 299 287 232 232 238 223 212 215 218 224 227 231 239 241 245 254 263 266 267 270 280 281 276 281 283 274 268 257 255 245 226 233 231 219 179 138 131 132 143 151 154
354 351 350 346 344 341 338 335 334 338 341 341 342 342 341 339 337 338 339 339 337 336 337 336 332 326 327 323 321 333 318 293 289 109 119 131 90 26 328 305 288 284 278 283 287 290 297 292 282 262 252 247 235 219 215 217 221 221 225 242 254 257 259 260 262 265 273 280 276 277 278 278 282 271 244 248 252 231 231 231 228 193 146 141 144 147 153 159
353 352 350 346 344 341 336 332 332 337 340 341 342 342 341 338 335 335 336 335 333 332 335 335 330 323 321 320 324 328 307 292 98 109 130 139 73 351 331 309 287 286 286 288 282 270 270 264 260 254 251 256 244 226 218 220 227 233 232 245 258 264 268 265 265 265 266 267 267 278 280 277 288 281 250 235 244 241 238 233 234 217 161 150 154 153 158 164
352 352 348 345 344 340 336 330 330 334 337 340 340 340 338 335 334 332 331 330 327 327 332 335 329 321 320 325 331 309 285 300 108 124 146 158 268 278 318 307 285 287 286 288 283 269 264 254 249 240 238 248 247 236 216 216 227 239 243 251 257 259 264 268 273 277 275 272 269 274 282 277 269 276 284 261 246 238 250 250 235 236 181 154 161 160 161 168
352 350 348 346 343 341 337 328 328 331 334 337 337 336 334 332 331 327 324 321 320 324 329 332 327 322 326 326 315 259 257 263 111 122 155 191 222 252 294 297 278 280 283 284 281 273 277 266 255 261 258 242 246 248 232 227 229 235 244 247 253 257 260 266 270 273 274 277 284 286 290 278 255 261 295 287 260 235 248 264 248 248 196 155 160 162 167 172
352 350 349 347 344 341 336 327 324 327 330 333 334 332 329 328 325 320 316 312 314 321 325 329 328 325 331 332 300 254 247 130 121 127 93 180 210 243 262 268 261 266 278 280 287 294 295 278 266 284 280 262 281 283 258 258 251 250 259 257 261 264 268 273 270 271 274 276 283 284 288 286 274 275 283 283 278 251 240 249 260 256 192 156 161 166 171 175
353 351 349 347 344 340 337 330 323 325 328 330 332 328 327 325 320 313 306 304 309 318 326 324 323 324 329 328 287 279 38 87 122 141 101 126 200 228 242 256 255 253 272 273 275 289 284 281 286 312 309 292 307 300 272 270 262 248 256 266 271 269 266 266 265 269 272 271 262 259 268 278 286 287 277 277 286 282 251 228 256 272 226 170 163 172 174 174
352 350 348 346 343 341 338 330 323 324 325 328 330 328 328 326 319 310 296 297 307 319 327 320 322 326 318 286 271 296 83 103 133 143 129 155 207 224 236 254 261 257 273 275 260 268 282 305 312 322 310 290 289 283 268 264 272 273 278 279 275 278 278 272 272 270 265 265 259 254 258 262 276 282 275 272 276 289 280 237 250 271 259 192 153 160 159 159
350 349 347 345 343 342 338 331 325 324 325 329 331 331 332 330 325 314 288 291 307 318 325 318 320 322 301 275 274 322 72 241 214 163 176 191 225 234 242 256 268 269 276 279 262 259 283 304 305 297 284 298 297 273 257 259 265 274 280 279 273 275 275 270 267 267 263 260 256 254 255 254 262 263 260 265 267 277 282 267 261 265 269 215 148 151 150 161
349 348 346 344 343 340 337 332 325 323 326 327 330 335 335 332 329 317 286 289 304 319 320 313 318 324 304 280 266 7 356 264 273 258 214 198 232 233 242 263 266 268 279 284 277 265 269 289 291 278 273 309 299 270 285 292 272 273 278 275 270 265 259 255 250 250 251 250 249 249 252 246 242 246 251 260 270 270 267 268 266 262 266 232 160 160 165 176
349 348 346 345 343 339 337 331 325 323 324 324 331 336 335 330 324 309 284 287 304 316 312 308 316 317 292 289 27 57 312 253 219 263 230 219 237 235 233 250 262 263 273 281 288 303 304 285 280 274 278 289 280 281 312 301 270 270 272 266 270 269 258 249 240 234 234 236 240 242 248 240 235 240 246 254 261 265 263 260 263 261 261 247 194 171 174 180
350 348 346 345 342 339 336 330 327 323 320 323 330 334 333 329 319 292 278 286 301 305 304 305 309 303 271 277 79 68 288 248 219 221 232 251 265 255 231 222 242 258 258 264 277 290 288 276 272 271 275 272 274 289 292 277 260 258 259 254 253 262 260 254 243 228 226 220 218 227 245 246 244 245 241 240 243 252 255 248 252 257 256 258 234 186 183 186
352 350 348 346 343 340 335 331 328 322 321 323 328 333 328 318 306 277 278 284 288 293 302 301 285 260 265 257 197 226 262 233 229 224 260 282 281 279 246 212 225 242 243 257 268 270 268 265 264 265 261 254 254 268 274 268 256 247 252 256 245 251 261 259 250 229 226 216 206 216 239 247 250 256 252 242 232 236 246 243 241 249 247 248 247 202 189 193
354 353 350 348 345 340 336 332 328 325 322 321 328 329 314 303 289 266 271 271 278 291 300 291 246 218 262 303 155 196 232 230 247 318 281 262 266 294 306 261 252 251 237 248 266 265 260 255 257 262 265 259 246 245 255 259 251 236 236 249 253 261 270 270 266 248 234 221 206 212 233 252 254 258 258 254 240 227 234 240 234 242 243 235 245 232 208 198
355 353 353 351 347 342 338 334 330 327 323 325 329 323 303 292 273 256 258 263 283 293 277 275 269 238 256 312 182 213 247 265 314 325 301 289 228 292 304 290 274 263 241 234 245 251 248 244 245 249 251 256 254 247 250 256 258 254 250 257 265 271 281 282 274 265 247 240 228 224 230 241 249 258 260 258 252 233 224 233 234 235 239 235 237 235 239 210
355 353 355 354 349 342 338 337 334 327 324 327 328 323 317 294 277 274 265 261 275 271 257 262 275 278 256 259 255 264 320 348 330 317 298 274 234 261 280 273 281 281 262 239 227 236 243 235 239 248 235 230 244 249 253 266 274 278 276 275 285 287 291 290 280 280 270 262 257 251 247 242 241 247 257 260 259 247 224 223 234 233 229 238 239 226 245 231
355 354 355 355 351 340 338 339 334 329 326 327 332 326 315 287 276 273 258 247 220 235 274 237 222 265 293 278 294 313 331 338 304 279 276 282 284 280 271 263 271 277 275 258 219 223 244 239 240 259 254 238 262 283 271 280 285 283 281 271 274 276 279 288 292 291 286 277 265 264 263 254 248 243 247 254 259 257 236 217 221 235 233 231 242 230 230 234
355 354 352 355 352 339 336 337 333 332 321 319 328 319 300 284 270 246 235 236 232 249 318 304 204 286 301 328 347 336 323 297 261 239 234 303 306 288 278 267 258 248 265 275 243 222 263 267 249 247 263 272 305 283 268 276 284 282 280 272 270 269 270 277 279 278 278 278 270 266 269 265 260 256 251 244 248 256 249 228 205 216 239 228 228 235 223 229
354 352 350 353 350 338 334 335 332 330 313 311 314 302 322 4 345 328 328 262 246 252 301 302 323 289 278 331 332 333 320 290 286 281 239 319 285 279 298 292 273 250 262 295 310 316 264 254 247 247 279 319 252 252 258 270 275 273 272 272 274 273 280 280 280 287 283 268 264 261 264 266 260 258 256 242 238 248 252 247 214 203 231 235 219 226 233 235
352 351 348 348 349 340 329 329 325 317 313 303 286 275 360 11 349 323 332 295 276 258 241 256 269 271 269 313 308 319 293 287 302 300 337 332 287 280 306 275 275 274 257 297 326 319 265 255 277 282 302 294 254 252 260 266 267 271 276 286 295 295 294 283 275 289 292 276 271 265 258 261 261 260 261 249 232 237 247 248 230 203 215 231 219 212 231 239
349 350 346 344 347 338 325 326 313 298 307 297 284 322 1 353 341 323 305 283 286 262 231 234 247 267 310 331 341 304 280 293 306 285 77 296 284 295 296 267 275 312 328 274 257 284 278 269 290 299 289 262 262 263 260 266 280 296 298 291 295 301 297 285 265 280 286 267 260 272 270 262 262 257 256 251 230 228 243 240 227 206 207 222 219 207 225 235
348 348 345 342 343 335 326 322 295 271 276 280 308 20 356 339 344 336 310 271 280 263 245 320 283 256 352 341 328 290 289 319 319 291 323 288 287 301 296 287 285 294 268 249 245 255 255 218 251 297 280 253 263 272 274 286 293 286 289 288 291 295 294 294 291 296 294 268 243 252 266 258 256 253 250 251 238 230 236 237 231 221 212 207 208 212 219 233
346 347 344 339 340 333 321 311 292 283 278 272 6 25 344 344 347 337 319 275 273 240 203 163 231 224 51 290 261 282 306 339 332 295 322 326 305 297 291 290 274 272 262 246 256 263 257 232 240 281 272 262 266 275 293 303 289 278 295 306 298 290 289 290 284 278 284 271 245 246 259 255 251 254 247 235 237 235 221 222 235 233 216 197 204 216 208 227
345 346 344 339 337 332 318 308 317 318 307 318 38 15 338 343 344 336 316 266 262 186 168 179 207 79 343 283 296 305 296 325 280 280 300 319 297 286 289 285 246 277 307 276 256 261 262 269 251 255 269 278 278 287 311 299 294 301 300 301 287 283 289 293 291 287 274 273 278 273 267 262 250 256 250 219 217 231 219 218 230 226 210 200 218 224 205 219
343 344 343 337 336 336 324 314 323 317 316 13 19 355 334 340 340 328 281 250 244 244 200 160 137 2 293 311 335 290 292 346 280 257 257 260 292 285 277 284 280 292 309 290 264 264 283 281 262 253 272 281 280 298 327 293 282 268 281 288 283 286 293 291 288 286 278 289 293 279 274 273 255 267 269 232 208 217 224 227 220 205 202 206 217 222 219 226
341 343 341 333 332 326 295 290 309 315 354 17 355 336 339 345 326 295 271 292 118 234 298 76 60 346 281 280 267 263 316 332 298 258 241 271 289 279 266 274 284 284 275 262 267 252 265 282 277 258 273 292 287 291 288 274 272 264 281 287 278 277 285 288 284 271 277 304 283 268 272 271 251 280 280 236 205 204 216 224 208 189 199 213 214 210 225 238
340 341 338 329 325 300 269 274 290 305 348 355 337 332 331 323 303 264 253 295 122 158 323 51 97 241 276 274 262 297 315 301 308 342 331 309 280 242 270 296 302 296 275 264 292 331 292 278 286 277 277 211 229 268 280 256 255 263 270 274 271 270 280 291 290 283 268 256 262 260 254 250 248 329 307 225 199 210 211 218 208 190 189 223 223 196 221 263
337 339 336 326 319 301 279 261 260 283 328 338 331 326 308 285 267 254 253 288 40 97 47 8 309 291 316 308 327 328 299 309 328 304 316 335 264 237 273 324 335 315 300 304 335 324 289 259 257 280 299 315 238 248 298 265 278 306 282 270 268 270 294 293 282 287 271 247 268 278 265 256 230 334 326 29 24 360 302 216 204 178 65 41 30 52 53 47
336 337 333 318 300 286 286 269 265 299 323 333 329 315 291 262 239 268 304 186 211 28 73 346 328 340 344 335 342 301 302 328 312 290 319 325 274 264 279 313 9 307 300 326 329 279 278 285 311 286 271 304 278 222 71 291 290 301 303 305 288 279 336 314 271 264 258 252 284 282 281 63 94 295 360 41 28 25 27 35 123 86 59 53 44 44 51 57
336 333 324 305 278 256 266 305 343 329 324 333 324 300 276 264 237 266 336 202 228 18 59 307 329 347 332 321 305 298 330 334 300 318 348 303 299 314 297 322 342 310 320 5 302 273 274 304 315 316 329 303 293 295 2 309 277 255 275 1 327 297 1 319 278 255 260 285 279 263 161 92 103 342 51 58 39 44 54 48 53 58 55 55 52 49 51 56
335 330 318 293 256 235 247 296 322 322 325 328 307 277 262 285 285 313 324 315 71 8 3 308 340 339 307 300 312 324 359 310 299 332 338 289 299 314 319 335 327 321 331 119 278 287 279 254 273 292 316 307 305 314 326 340 329 291 182 73 326 299 332 279 257 207 259 293 275 252 229 129 131 53 62 80 59 47 66 65 54 54 54 49 47 49 50 53
334 324 308 246 229 240 252 279 299 311 316 305 280 268 253 273 322 68 327 20 57 340 339 1 332 310 290 289 340 1 346 294 308 341 327 304 324 329 332 333 335 343 321 286 300 278 272 250 238 250 302 295 300 332 354 325 311 350 127 136 284 288 288 292 289 340 346 335 301 272 248 118 125 136 95 101 102 67 56 59 56 52 51 47 44 43 42 46
333 314 287 247 239 247 253 262 274 291 301 288 267 266 254 275 352 24 345 11 28 334 336 338 306 300 290 283 334 26 359 307 331 345 331 342 11 358 353 348 349 354 328 320 31 294 285 308 65 349 332 303 309 348 355 316 306 55 147 170 224 250 262 299 347 326 357 35 328 308 99 99 124 142 124 104 104 96 82 68 59 52 47 46 43 40 38 37
333 309 253 244 240 236 236 244 245 240 272 283 269 278 303 341 359 15 6 354 2 346 328 319 313 317 302 272 334 19 39 308 326 335 339 352 17 10 5 11 353 345 339 331 4 217 295 319 346 310 298 298 328 340 323 302 316 323 261 264 264 240 250 272 197 177 13 139 214 118 115 121 136 134 122 105 93 94 97 90 78 66 52 49 44 38 38 36
333 310 265 252 234 208 229 236 230 227 257 285 280 293 320 7 7 10 28 354 334 329 314 316 352 329 314 324 351 354 355 335 326 336 339 324 12 15 356 11 3 344 346 330 311 139 313 308 301 304 301 321 339 322 302 312 333 308 299 338 306 258 248 258 218 153 143 183 220 163 145 147 155 130 90 70 56 46 48 54 59 56 45 42 43 35 34 37
319 306 288 272 220 157 260 246 237 247 257 268 263 275 304 24 38 19 31 7 322 300 297 312 350 330 322 335 335 343 352 344 325 329 337 335 13 7 346 3 11 348 344 330 318 69 21 322 317 334 325 331 337 321 309 339 343 320 308 312 315 299 273 257 260 220 177 180 233 171 150 123 57 86 67 52 43 32 28 32 38 41 35 30 34 33 32 34
291 287 292 256 166 304 276 245 252 263 262 268 267 277 319 8 64 59 52 32 323 311 312 323 343 323 319 326 325 339 347 332 325 332 349 333 300 298 330 351 3 356 351 341 334 33 41 292 281 321 312 320 339 346 354 352 344 340 330 322 1 355 302 294 291 271 222 181 199 171 133 71 37 63 59 54 51 36 22 25 31 32 31 29 30 28 28 32
273 278 278 152 251 285 236 216 258 258 245 264 276 57 13 342 48 68 64 46 327 318 325 336 331 306 318 332 326 334 340 329 333 352 9 343 310 261 345 352 353 359 355 346 350 360 353 209 302 314 304 13 348 337 6 4 345 349 355 355 6 358 322 324 269 250 257 198 188 163 121 81 63 57 49 49 46 32 23 24 24 28 30 26 25 25 23 27
279 292 252 162 230 226 202 237 249 255 250 258 287 45 39 354 8 53 87 107 326 294 267 312 325 306 317 335 330 334 339 326 329 9 358 349 7 30 358 353 350 354 351 348 11 12 336 291 318 317 31 67 46 336 357 358 343 358 36 5 341 344 347 333 262 243 287 268 221 150 124 88 47 30 43 47 40 29 24 17 13 22 25 17 16 18 16 19
268 299 137 165 198 189 228 264 252 265 278 305 4 72 75 324 319 356 47 167 196 292 252 276 328 316 312 324 324 333 339 322 321 359 356 351 13 15 2 0 352 353 2 351 4 13 323 313 322 314 356 37 36 34 16 1 355 38 57 1 326 343 356 329 302 330 341 324 312 114 112 85 24 19 37 46 39 31 27 16 8 14 13 6 6 9 13 14
272 330 123 163 185 189 240 275 274 280 304 40 1 105 109 315 294 315 310 229 194 6 317 283 326 340 332 327 321 335 346 328 319 353 359 357 9 14 13 13 357 358 14 351 338 359 312 314 318 303 345 25 356 89 54 25 22 54 38 357 346 352 339 317 313 329 340 334 320 137 117 82 14 14 26 36 29 26 24 11 3 7 5 358 359 1 7 5
305 315 188 173 177 200 253 283 311 309 320 343 330 141 137 338 290 291 316 328 37 7 287 291 307 283 315 327 315 325 345 338 329 347 356 358 3 15 13 8 5 10 20 6 350 22 25 341 331 312 323 21 328 233 76 35 29 39 14 359 357 354 346 332 316 329 42 339 319 294 122 95 18 10 21 27 21 19 17 6 1 3 359 356 357 357 358 357
306 289 247 170 166 207 269 303 317 303 305 321 319 272 228 155 110 321 315 306 299 341 307 289 271 276 312 330 303 303 322 315 316 327 344 358 353 12 5 344 4 28 32 18 333 349 27 4 348 344 348 3 23 41 32 15 18 24 10 5 4 1 360 353 337 13 41 342 339 11 60 59 42 28 22 18 13 10 7 2 358 357 354 351 350 351 354 354
319 307 316 358 183 240 266 291 298 285 310 335 309 283 286 166 138 135 297 294 300 6 299 284 288 314 334 325 304 307 320 315 317 322 335 352 347 357 349 333 15 49 59 255 305 327 27 36 25 34 35 35 63 83 84 45 34 29 18 13 13 12 9 9 29 36 354 326 34 42 10 356 26 24 15 7 3 0 357 355 353 350 349 346 343 348 352 351
291 322 338 344 315 301 287 279 304 308 335 353 312 291 297 259 199 161 196 300 316 297 283 291 306 306 309 318 317 327 332 332 348 337 341 349 345 356 359 341 19 80 194 250 27 31 43 56 53 62 73 78 87 98 98 74 53 38 30 23 18 19 24 31 44 28 350 327 61 32 7 8 20 11 4 358 354 351 348 348 345 342 344 344 344 346 347 347
306 320 10 17 311 305 306 319 341 325 308 304 291 297 300 284 263 218 217 283 292 280 261 265 272 276 303 320 316 324 337 340 352 349 349 353 344 352 21 353 356 132 193 9 43 69 67 54 69 83 89 94 99 103 91 71 60 46 39 33 26 25 32 39 40 31 21 26 30 14 17 34 20 2 356 351 347 342 340 340 337 338 343 345 345 345 343 345
339 329 30 24 305 293 301 318 327 311 300 299 272 267 281 285 281 284 301 287 276 280 268 267 278 296 312 307 299 321 342 338 336 345 348 349 342 346 14 13 341 14 69 23 43 130 123 44 83 104 109 121 125 122 112 83 64 50 41 37 35 34 38 46 43 35 41 40 15 3 22 48 26 359 348 339 336 332 329 333 338 340 343 346 346 343 342 344
353 346 357 332 309 305 301 304 308 299 299 300 277 276 285 290 296 327 318 276 276 290 292 289 307 330 307 301 302 314 338 334 325 330 333 333 343 351 358 354 342 0 19 17 24 38 353 9 131 119 134 162 163 168 168 102 43 39 42 40 37 35 36 42 38 32 39 31 14 10 16 23 12 355 340 331 333 334 334 338 343 344 343 343 343 341 341 344
354 321 309 303 309 315 298 291 292 289 285 253 280 302 296 288 325 11 307 255 256 274 306 307 316 322 294 288 293 304 330 330 316 313 312 314 334 351 349 349 349 355 12 17 2 11 39 132 170 178 219 215 190 196 200 212 320 1 37 37 32 33 30 25 24 38 53 28 6 16 19 0 352 347 340 338 341 342 340 339 341 344 343 342 342 342 341 342
351 291 275 282 293 303 302 294 278 276 305 312 281 285 285 283 336 9 299 265 257 279 61 273 301 303 281 281 298 312 323 317 304 303 291 281 302 320 317 353 6 356 4 13 348 358 84 157 210 211 252 257 203 203 206 217 272 340 39 33 28 28 20 20 27 47 68 53 344 7 19 358 347 344 342 342 341 340 340 337 337 341 343 344 346 342 338 339
Height
816 815 813 812 810 809 807 806 805 803 802 801 800 798 797 796 794 793 792 790 789 788 787 786 785 784 783 782 781 780 779 778 777 775 773 773 773 774 774 774 773 772 772 771 770 769 764 762 762 760 761 761 761 759 757 753 750 754 761 768 766 758 752 746 742 736 731 728 723 718 713 715 716 709 704 704 709 712 713 713 711 711 716 722 727 734 742 747
816 814 813 811 810 808 807 805 804 803 802 801 799 798 796 795 794 792 791 790 789 788 787 786 785 784 783 782 781 780 779 778 777 774 772 773 773 774 774 774 773 772 771 771 768 765 762 760 757 758 760 761 758 757 758 753 751 755 759 764 761 752 746 738 736 732 728 728 723 717 712 713 714 710 706 713 719 715 718 717 712 717 722 723 727 735 741 745
816 814 813 811 809 808 807 805 804 803 801 800 799 798 796 795 794 792 791 790 789 788 787 786 785 784 783 782 781 781 780 778 774 772 772 773 773 774 774 773 773 772 771 770 768 764 762 760 757 757 760 760 756 754 757 754 752 752 756 761 754 746 743 736 734 731 726 725 726 722 715 715 711 708 710 717 720 718 721 719 715 724 729 729 731 736 740 744
815 814 812 810 809 807 806 804 803 802 801 800 799 797 796 795 793 792 791 790 789 788 787 786 785 784 783 782 781 781 780 778 773 771 773 773 773 773 773 773 772 772 771 770 768 765 763 761 759 758 760 760 754 751 754 753 751 750 753 757 748 742 743 739 735 731 726 726 728 726 722 721 715 710 712 717 723 723 719 714 713 721 728 730 731 734 737 742
815 813 812 810 808 807 805 804 803 802 801 800 799 797 796 795 793 792 791 790 788 787 786 785 784 783 782 782 782 781 782 781 774 771 773 773 773 773 773 773 772 772 771 770 766 764 762 760 759 759 760 760 754 751 751 747 747 749 749 750 746 744 745 739 733 729 727 727 729 729 728 724 718 714 711 715 725 724 714 709 708 711 720 727 727 730 734 738
815 813 811 810 808 806 805 804 802 801 800 799 798 797 796 794 793 792 791 789 788 787 786 785 784 783 782 782 781 782 783 780 772 771 773 772 773 773 773 773 772 771 770 769 764 762 760 758 758 759 759 758 754 751 749 744 744 751 749 746 745 744 744 740 734 731 728 729 732 732 729 724 725 723 714 715 719 714 707 705 705 706 711 720 723 726 731 735
814 812 811 809 807 806 804 803 802 801 800 799 798 796 795 794 793 791 790 789 788 787 786 785 784 783 782 781 781 781 780 774 769 772 772 772 773 772 773 772 772 772 770 767 763 760 759 758 758 756 756 755 752 747 744 741 741 748 750 746 743 741 741 739 736 735 732 732 732 730 729 728 728 726 721 720 714 707 705 703 703 703 706 716 721 724 728 731
814 812 810 809 807 805 803 802 801 800 799 798 797 796 795 793 792 790 789 788 787 786 786 785 784 783 782 781 780 778 774 771 770 772 771 772 773 772 773 772 772 771 769 766 762 760 759 759 758 755 757 753 748 747 744 743 745 748 750 745 741 741 740 739 737 737 734 733 733 734 737 733 728 726 727 725 714 707 706 704 704 703 707 717 722 726 728 728
814 812 810 808 806 804 803 802 801 800 799 797 797 795 794 792 791 789 788 787 787 787 785 784 784 783 783 781 780 778 772 768 770 771 771 772 773 773 773 772 772 769 767 765 762 762 761 760 757 755 759 755 750 750 746 751 754 748 747 745 743 742 740 739 739 738 737 735 734 738 741 738 731 731 732 724 717 712 704 703 707 706 709 716 721 724 727 730
813 811 809 808 805 804 802 801 800 799 798 797 796 794 793 791 789 788 787 787 786 786 785 785 784 783 783 782 781 780 771 768 770 770 771 772 772 773 772 771 770 767 766 763 762 762 761 760 758 755 759 757 753 753 750 753 752 744 745 746 744 744 740 740 740 739 739 737 736 740 744 741 736 738 737 725 718 715 706 705 710 712 710 711 718 722 726 732
813 811 809 807 805 803 801 800 799 798 798 796 795 793 792 790 788 787 787 787 786 786 785 784 783 783 783 781 780 777 769 768 769 769 770 771 771 771 770 769 768 767 765 762 761 760 760 760 757 758 760 757 755 753 750 749 747 744 746 748 746 746 744 742 743 741 741 740 738 741 745 744 742 742 736 724 719 718 716 715 717 716 711 709 717 723 727 733
812 810 808 806 804 803 801 800 799 798 797 795 794 792 791 789 788 787 786 786 786 785 785 784 784 783 782 780 776 772 767 768 768 768 769 769 770 770 769 768 767 767 765 762 760 758 760 760 759 762 760 757 758 756 751 746 746 746 747 752 750 746 746 743 742 741 742 743 738 741 750 750 747 742 731 725 723 721 722 723 721 720 715 712 717 723 727 731
812 810 808 806 804 802 801 799 798 797 796 795 793 791 790 789 787 787 786 786 785 785 784 784 783 783 784 779 770 768 768 767 767 768 768 767 767 767 766 767 766 766 766 764 761 759 760 761 760 761 758 758 759 754 748 745 747 749 748 753 753 752 748 739 736 738 739 741 736 744 759 754 742 736 732 731 728 726 728 726 724 721 716 713 714 721 726 728
811 809 807 805 803 801 800 799 798 797 795 794 793 791 790 788 788 787 786 786 785 785 784 783 783 783 784 777 767 767 767 765 766 766 766 766 764 763 763 764 765 765 765 764 763 761 761 760 760 760 757 758 756 751 750 749 749 750 751 751 753 758 750 733 729 732 736 736 732 744 760 751 738 732 730 730 729 730 730 728 727 724 718 714 711 717 723 723
811 809 807 804 802 801 799 798 797 796 795 794 792 791 789 788 788 786 786 786 784 784 783 782 782 782 781 773 765 767 767 765 764 763 765 765 763 761 759 761 762 762 763 763 762 761 760 759 760 761 759 754 753 757 758 754 749 747 756 757 750 752 746 730 723 724 730 730 728 742 755 747 737 732 727 724 725 729 730 728 727 724 720 716 712 714 718 717
811 809 806 804 802 800 799 798 797 796 794 793 791 790 788 788 787 786 785 784 784 783 783 782 779 779 780 770 763 765 765 763 762 763 763 762 763 761 759 760 759 760 761 761 761 760 759 759 759 759 758 755 755 758 760 759 753 745 752 758 750 747 744 734 725 717 720 724 726 736 747 745 737 731 725 721 720 723 727 726 724 722 718 715 714 713 714 714
811 809 806 804 802 800 799 797 796 795 794 792 791 789 788 787 786 785 784 783 784 782 782 781 776 776 776 765 763 764 760 760 761 762 761 760 762 762 761 760 758 758 757 758 760 758 757 757 759 758 757 757 754 754 764 768 761 750 747 750 747 744 742 739 730 717 715 722 725 728 735 739 735 729 726 721 717 718 721 723 721 719 716 714 713 712 710 711
811 808 806 804 801 800 798 797 796 795 793 791 790 789 787 787 785 784 783 782 783 783 783 780 776 782 778 764 763 762 757 759 761 762 762 759 760 761 762 761 758 757 756 757 758 757 758 756 757 758 757 757 754 756 767 768 760 757 755 754 752 746 740 739 732 720 718 724 727 728 730 730 727 727 726 721 717 715 715 717 718 715 714 714 711 709 708 709
811 808 806 804 801 800 798 797 796 794 792 791 790 789 787 785 785 784 782 782 782 782 781 775 775 781 775 762 759 759 758 761 762 762 761 758 758 759 760 759 758 759 761 762 760 758 758 758 759 764 762 757 755 759 762 758 754 755 755 755 755 751 745 739 732 723 721 727 729 729 730 725 723 724 723 720 717 713 710 711 715 714 713 712 710 709 708 710
811 808 806 804 802 800 798 797 796 794 792 790 789 788 786 784 784 782 780 780 776 772 770 766 767 770 766 760 759 759 761 760 759 758 758 759 759 759 758 758 758 760 763 764 761 757 759 766 768 771 767 755 755 759 755 749 749 750 750 751 750 750 747 739 734 726 722 732 733 727 727 725 723 723 719 717 716 714 709 706 709 712 713 711 709 709 709 709
811 809 806 804 802 800 798 797 795 794 793 790 790 789 784 782 785 784 780 776 767 764 767 765 765 766 762 762 762 762 763 761 756 754 756 759 759 761 760 760 763 766 767 766 764 761 764 771 769 763 760 756 758 756 750 748 749 749 750 750 747 747 746 738 734 729 722 732 735 726 728 729 724 722 716 711 713 714 710 704 703 707 712 710 708 709 708 706
811 808 806 804 802 799 798 797 795 794 792 790 790 787 782 782 786 784 782 779 767 761 765 765 765 764 758 760 762 763 765 764 759 755 756 759 759 762 762 764 771 769 765 769 776 779 776 770 761 754 751 755 757 750 747 748 747 748 748 750 752 749 747 741 735 732 728 734 736 730 732 731 722 720 715 708 708 710 708 704 700 703 709 709 706 708 708 707
811 808 806 803 801 800 798 796 795 793 791 789 787 785 784 785 784 782 783 783 773 762 761 762 763 763 760 761 761 762 765 763 761 757 756 760 760 761 762 765 770 769 770 775 781 790 791 778 764 756 752 754 755 747 746 748 750 754 753 756 758 751 752 751 740 734 733 734 736 735 735 731 723 719 715 706 703 705 703 699 695 697 703 705 703 705 707 708
810 807 806 803 801 799 797 796 794 792 791 788 786 786 787 786 785 784 783 782 776 764 758 759 760 762 763 763 762 763 763 760 760 758 754 759 760 759 762 762 765 771 774 775 774 779 786 778 763 758 756 755 755 750 748 754 759 761 756 756 758 752 750 749 741 738 738 735 732 737 744 737 724 722 717 705 701 702 699 696 695 695 697 699 700 703 705 706
810 808 805 802 800 798 797 796 792 790 789 785 786 787 787 787 785 785 785 784 779 767 760 761 761 762 762 763 762 761 761 760 760 758 754 757 761 761 762 759 762 770 769 768 771 771 769 763 756 759 760 755 755 754 754 759 764 762 756 753 756 755 747 742 740 741 749 749 734 736 754 747 725 722 718 709 706 703 698 700 701 697 693 695 701 702 704 704
809 807 805 802 800 797 796 794 791 790 787 785 787 787 788 788 785 786 787 789 785 769 763 766 764 764 764 761 758 759 766 765 758 756 755 758 759 760 764 760 758 765 763 763 768 763 757 754 754 758 758 754 755 757 757 758 765 769 761 752 753 752 747 744 741 744 756 756 738 734 752 751 732 723 713 706 709 704 699 702 701 697 695 698 702 701 701 703
809 807 804 802 800 798 796 793 792 790 787 787 788 788 789 787 787 787 789 798 794 771 763 765 763 766 765 761 758 764 772 765 756 754 754 758 758 757 765 764 760 763 759 763 771 764 756 755 755 756 756 755 757 760 759 758 767 770 758 751 753 751 751 750 744 745 749 747 743 738 744 750 742 728 711 703 707 708 705 704 699 697 699 700 701 700 701 703
808 806 804 802 800 800 798 795 794 790 788 789 789 789 789 787 788 787 795 808 794 768 764 764 763 765 762 759 758 762 765 759 760 759 751 755 757 757 764 762 762 766 762 767 774 764 756 757 755 754 758 762 763 760 756 757 764 761 752 752 752 748 751 751 745 744 742 750 758 746 743 755 747 728 712 703 705 711 709 704 699 698 700 701 700 701 702 702
807 805 803 801 799 798 797 796 795 791 790 790 789 790 789 788 789 789 802 806 781 765 769 766 765 765 761 758 757 759 759 757 762 759 750 754 756 757 762 758 758 762 757 759 764 759 753 752 751 751 756 764 764 756 751 755 760 754 751 754 749 744 748 751 751 746 743 757 764 748 743 753 753 741 726 715 714 716 710 702 697 697 701 704 701 702 706 708
806 804 802 800 798 798 797 796 794 792 791 790 791 791 788 789 792 796 806 798 775 768 769 765 765 763 761 763 763 763 761 758 759 756 753 757 757 755 757 755 757 762 759 757 764 767 755 745 747 748 750 754 752 749 750 751 752 751 755 758 750 746 747 750 751 748 753 762 756 744 737 743 762 760 737 728 727 719 712 706 702 704 710 712 709 709 715 720
804 802 801 799 798 797 797 795 792 792 792 791 791 790 790 792 794 801 799 780 771 773 770 770 768 762 765 771 772 769 763 761 759 758 760 760 760 761 760 761 764 769 774 772 769 767 757 753 755 749 745 746 745 748 751 748 747 751 759 764 760 757 759 760 756 754 764 767 754 744 736 744 771 766 737 732 728 718 717 715 714 718 719 719 719 719 721 726
802 800 799 797 796 796 796 794 792 794 792 791 792 789 793 796 794 796 784 767 776 781 774 777 773 768 772 773 773 770 766 768 761 757 764 765 765 766 765 768 769 775 787 790 782 769 761 763 761 751 745 744 746 752 752 748 748 750 756 768 776 776 781 785 776 768 772 767 750 741 741 752 770 759 738 737 732 723 725 725 724 725 724 725 725 726 727 729
801 798 796 796 795 795 795 794 793 794 792 792 793 788 795 802 794 784 771 767 783 782 772 776 774 774 777 774 774 769 768 773 765 760 764 764 767 767 763 763 764 772 783 791 791 780 771 768 760 756 758 752 749 754 758 755 752 753 759 776 787 785 794 801 786 776 778 768 746 735 741 756 765 754 741 741 739 731 728 729 730 729 729 732 730 730 732 733
799 797 796 795 795 795 794 795 794 794 793 792 793 792 801 804 787 774 771 771 778 776 771 776 777 777 778 775 774 771 773 775 766 765 768 765 770 773 769 765 762 766 772 780 788 784 781 777 763 760 764 759 750 748 754 755 752 754 757 770 782 781 787 791 778 773 774 767 751 740 747 761 766 756 740 738 741 738 735 734 734 734 735 736 737 737 738 737
798 796 796 794 794 794 793 794 793 793 794 792 793 797 803 797 778 774 779 774 775 777 775 775 776 780 780 775 772 771 777 778 768 767 771 770 774 775 772 770 766 767 770 778 787 784 780 774 761 756 757 755 752 746 747 753 756 754 752 765 780 777 775 774 767 764 766 771 765 752 752 756 754 745 734 734 737 738 743 742 739 742 742 741 745 745 744 744
797 795 795 794 793 792 792 793 793 793 793 792 796 798 792 784 775 778 783 779 780 784 782 780 780 785 785 777 775 774 774 776 772 773 775 773 775 775 772 772 769 768 771 776 783 786 787 779 764 760 756 751 752 750 748 754 759 756 754 762 764 758 761 767 765 759 762 776 772 756 755 755 752 748 737 735 739 739 743 744 743 748 747 748 752 751 751 751
797 795 794 792 791 791 792 792 792 793 792 793 800 795 780 775 775 776 780 781 782 783 788 791 787 787 788 783 781 779 776 776 776 777 779 776 777 777 773 772 769 767 768 771 775 782 788 784 769 763 762 755 751 752 749 748 753 759 762 759 751 746 747 754 764 766 769 778 770 755 758 761 763 763 750 744 751 750 748 750 751 753 753 754 756 756 756 756
799 796 793 790 789 791 791 791 792 792 792 795 801 792 776 774 775 775 779 783 783 783 789 795 789 785 789 790 787 781 779 784 782 780 783 783 781 779 775 774 771 767 764 765 772 779 785 786 776 767 768 762 753 756 760 754 749 754 756 750 753 764 760 754 763 768 770 780 773 756 757 767 772 772 763 760 763 761 758 758 758 759 759 759 760 760 760 759
800 798 793 789 789 790 791 792 791 791 794 798 797 789 779 774 773 775 780 784 786 787 789 792 790 786 786 790 789 784 782 786 783 781 787 790 787 781 777 775 772 771 767 765 774 780 783 790 788 774 769 770 768 770 777 773 759 753 754 750 757 770 768 762 764 759 759 772 773 761 767 781 782 773 767 767 766 766 766 763 763 763 762 762 763 763 762 762
798 796 792 789 789 790 790 791 791 791 796 795 787 783 780 775 773 775 781 785 786 788 791 792 792 791 788 788 788 786 784 784 785 789 792 792 790 784 777 773 773 774 772 770 778 783 782 788 790 776 768 778 786 782 779 780 773 767 770 772 773 772 767 766 763 751 748 759 763 767 781 790 783 774 770 771 772 771 768 767 766 765 764 765 764 764 764 763
796 795 791 788 789 789 789 791 791 789 789 786 779 780 783 781 778 778 780 784 786 785 787 791 793 793 792 792 791 789 787 785 786 790 791 788 790 788 779 774 775 776 776 777 783 789 788 788 789 781 775 783 789 781 773 774 774 775 780 784 783 778 779 784 774 751 744 751 751 763 786 793 785 778 773 774 777 774 770 770 768 766 767 767 766 765 765 763
796 795 789 786 788 788 789 790 788 783 781 782 780 781 785 784 782 781 780 782 784 783 782 787 792 793 793 794 793 791 791 788 785 787 787 784 785 785 780 775 774 774 780 787 788 788 789 790 792 786 780 782 782 775 775 775 771 774 781 783 780 777 782 794 790 770 760 758 747 755 783 794 785 776 771 773 775 772 772 774 771 770 771 769 767 766 765 765
793 790 787 786 786 786 789 792 788 781 778 778 778 779 783 784 783 782 781 780 782 785 786 787 789 791 793 793 791 791 792 791 786 784 784 783 781 779 776 775 775 774 781 790 789 785 789 794 796 790 785 787 784 776 776 777 775 779 783 780 778 778 778 780 781 777 777 777 764 762 785 797 788 778 774 774 774 773 775 776 774 774 773 770 769 766 765 766
792 788 785 786 786 785 789 793 792 789 783 778 779 781 781 783 784 784 783 782 783 787 790 789 787 789 791 791 791 791 792 793 790 783 782 786 783 778 775 774 775 776 780 786 786 785 793 798 796 793 792 795 793 787 786 786 786 789 789 783 779 778 775 773 772 772 781 790 781 773 787 800 793 783 777 776 779 780 781 779 776 775 774 772 770 768 767 767
794 790 784 782 783 785 787 787 789 792 788 783 784 783 781 783 784 784 785 783 781 784 789 788 786 785 786 789 791 789 789 793 794 787 783 786 782 777 776 773 772 775 779 782 781 782 791 796 796 797 799 799 799 801 802 800 797 795 792 788 783 779 778 777 777 780 789 794 791 787 794 796 789 783 783 784 786 787 785 782 779 777 776 774 771 770 768 767
796 794 789 784 781 781 783 781 783 787 787 789 790 784 781 785 785 784 785 784 781 783 787 785 783 785 788 791 792 791 788 788 791 789 786 787 784 779 776 773 772 775 779 780 779 780 788 795 795 798 801 801 803 807 807 804 803 801 798 793 788 785 782 780 783 791 794 793 796 798 796 792 789 789 790 791 792 791 788 785 782 779 776 774 771 770 769 768
797 796 794 792 789 784 783 781 783 786 786 791 793 784 781 784 785 785 787 785 782 783 786 786 785 790 793 793 794 794 790 786 788 790 788 787 785 779 775 775 774 776 779 778 776 781 792 798 796 797 799 800 802 803 801 800 801 802 800 798 794 790 788 789 793 796 794 792 798 799 793 794 797 796 797 798 796 794 791 787 784 780 777 775 772 770 770 769
795 792 790 795 797 793 790 786 785 787 788 790 790 785 784 784 785 788 788 785 782 782 786 789 788 789 791 793 795 796 794 791 791 791 789 788 786 782 780 778 774 773 776 776 777 784 794 798 796 797 801 801 800 800 798 797 799 799 799 799 798 795 794 797 799 797 795 799 802 798 796 802 804 802 803 802 798 795 792 787 784 780 777 775 774 773 772 771
795 793 790 793 795 792 790 787 786 788 789 788 788 786 786 785 785 786 786 787 788 783 784 790 789 787 790 791 793 797 798 798 797 794 791 790 789 785 785 783 776 770 772 777 779 783 791 798 796 797 803 803 801 800 798 797 797 798 798 798 798 798 797 798 799 797 797 801 801 798 800 804 805 804 804 800 797 793 789 785 783 780 779 777 777 776 775 773
799 800 798 797 794 791 790 788 788 790 788 788 789 785 783 785 785 786 786 790 793 786 783 789 789 787 791 791 792 796 796 795 797 795 791 791 789 786 786 786 779 773 774 780 781 779 786 797 797 798 804 805 801 801 799 797 800 800 798 797 798 800 799 798 798 798 800 804 803 800 802 804 801 800 800 796 793 790 787 785 783 781 780 779 779 778 776 775
801 802 801 802 799 794 792 789 788 791 789 789 790 786 783 785 785 787 788 785 785 785 785 790 792 790 791 793 794 795 792 790 792 791 788 788 786 783 783 782 779 779 780 782 782 780 785 796 798 798 805 803 798 800 800 799 803 803 800 799 800 801 802 799 798 799 804 809 807 803 805 805 800 796 796 794 791 789 788 786 783 782 782 781 780 779 778 778
802 801 800 802 801 794 791 790 787 789 791 790 789 786 784 782 781 787 791 783 776 778 783 788 793 794 794 795 795 792 789 788 787 785 783 782 779 777 778 776 776 780 782 782 783 781 784 794 795 796 803 801 793 795 799 802 806 806 800 798 799 800 800 800 799 799 803 808 808 805 803 802 798 796 796 794 792 791 789 787 784 783 782 782 782 781 780 779